• In Hungary
  • List of Countries
  • For 7 days
  • Water Temperature
  • Satellite Maps
  • Weather Map
  • News
  • Weather Widgets
  • user-avatar
    Login

    Hourly Weather Lozenec

    Today, 21 June, Thursday

    Time Temperature Precipitation Wind Pressure Humidity
    00:00 +20°C° 0 mm 3 mps 759 mmHg 76%
    01:00 +19°C° 0 mm 3 mps 759 mmHg 76%
    02:00 +19°C° 0 mm 3 mps 759 mmHg 75%
    03:00 +19°C° 0 mm 3 mps 759 mmHg 74%
    04:00 +19°C° 0 mm 3 mps 759 mmHg 73%
    05:00 +19°C° 0 mm 3 mps 759 mmHg 71%
    06:00 +21°C° 0 mm 3 mps 759 mmHg 64%
    07:00 +25°C° 0 mm 3 mps 759 mmHg 57%
    08:00 +27°C° 0 mm 4 mps 759 mmHg 49%
    09:00 +28°C° 0 mm 4 mps 758 mmHg 45%
    10:00 +30°C° 0 mm 4 mps 758 mmHg 40%
    11:00 +32°C° 0 mm 4 mps 758 mmHg 36%
    12:00 +33°C° 0 mm 4 mps 757 mmHg 34%
    13:00 +33°C° 0 mm 4 mps 757 mmHg 32%
    14:00 +34°C° 0 mm 3 mps 757 mmHg 31%
    15:00 +34°C° 0 mm 3 mps 756 mmHg 33%
    16:00 +33°C° 0 mm 3 mps 756 mmHg 36%
    17:00 +33°C° 0 mm 3 mps 756 mmHg 38%
    18:00 +29°C° 0 mm 2 mps 756 mmHg 48%
    19:00 +27°C° 0 mm 2 mps 755 mmHg 59%
    20:00 +24°C° 0 mm 1 mps 755 mmHg 69%
    21:00 +23°C° 0 mm 1 mps 755 mmHg 72%
    22:00 +23°C° 0 mm 1 mps 755 mmHg 75%
    23:00 +20°C° 0 mm 0 mps 755 mmHg 78%

    Tomorrow, 22 June, Friday

    Time Temperature Precipitation Wind Pressure Humidity
    00:00 +22°C° 0 mm 1 mps 755 mmHg 76%
    01:00 +22°C° 0 mm 1 mps 755 mmHg 75%
    02:00 +22°C° 0 mm 1 mps 755 mmHg 74%
    03:00 +22°C° 0 mm 1 mps 755 mmHg 73%
    04:00 +21°C° 0 mm 2 mps 755 mmHg 73%
    05:00 +20°C° 0 mm 2 mps 754 mmHg 72%
    06:00 +24°C° 0 mm 1 mps 754 mmHg 65%
    07:00 +26°C° 0 mm 1 mps 755 mmHg 59%
    08:00 +28°C° 0 mm 1 mps 755 mmHg 52%
    09:00 +30°C° 0 mm 1 mps 754 mmHg 48%
    10:00 +32°C° 0 mm 1 mps 754 mmHg 43%
    11:00 +34°C° 0 mm 1 mps 754 mmHg 38%
    12:00 +34°C° 0 mm 2 mps 754 mmHg 39%
    13:00 +34°C° 0 mm 2 mps 754 mmHg 40%
    14:00 +33°C° 0 mm 3 mps 753 mmHg 41%
    15:00 +33°C° 0 mm 3 mps 753 mmHg 42%
    16:00 +31°C° 0 mm 3 mps 753 mmHg 44%
    17:00 +31°C° 0 mm 3 mps 752 mmHg 46%
    18:00 +29°C° 0 mm 3 mps 753 mmHg 49%
    19:00 +28°C° 0 mm 3 mps 753 mmHg 52%
    20:00 +27°C° 0 mm 3 mps 753 mmHg 55%
    21:00 +26°C° 0.1 mm 4 mps 753 mmHg 60%
    22:00 +23°C° 0.1 mm 5 mps 754 mmHg 66%
    23:00 +22°C° 0.1 mm 5 mps 754 mmHg 72%

    Day after tomorrow, 23 June, Saturday

    Time Temperature Precipitation Wind Pressure Humidity
    00:00 +21°C° 0.3 mm 6 mps 754 mmHg 77%
    01:00 +20°C° 0.3 mm 7 mps 754 mmHg 82%
    02:00 +18°C° 0.3 mm 7 mps 755 mmHg 87%
    03:00 +17°C° 0.1 mm 7 mps 755 mmHg 86%
    04:00 +17°C° 0.1 mm 7 mps 755 mmHg 85%
    05:00 +16°C° 0.1 mm 7 mps 755 mmHg 84%
    06:00 +17°C° 0 mm 8 mps 756 mmHg 76%
    07:00 +18°C° 0 mm 8 mps 757 mmHg 68%
    08:00 +20°C° 0 mm 8 mps 757 mmHg 60%
    09:00 +21°C° 0 mm 8 mps 758 mmHg 57%
    10:00 +22°C° 0 mm 8 mps 758 mmHg 54%
    11:00 +24°C° 0 mm 7 mps 758 mmHg 51%
    12:00 +24°C° 0 mm 7 mps 758 mmHg 51%
    13:00 +24°C° 0 mm 6 mps 759 mmHg 50%
    14:00 +26°C° 0 mm 6 mps 759 mmHg 50%
    15:00 +24°C° 0 mm 6 mps 759 mmHg 51%
    16:00 +25°C° 0 mm 5 mps 759 mmHg 52%
    17:00 +25°C° 0 mm 5 mps 759 mmHg 54%
    18:00 +23°C° 0 mm 5 mps 759 mmHg 59%
    19:00 +21°C° 0 mm 4 mps 759 mmHg 64%
    20:00 +20°C° 0 mm 4 mps 759 mmHg 69%
    21:00 +19°C° 0 mm 4 mps 760 mmHg 70%
    22:00 +19°C° 0 mm 3 mps 760 mmHg 71%
    23:00 +18°C° 0 mm 3 mps 760 mmHg 72%

    24 June, Sunday

    Time Temperature Precipitation Wind Pressure Humidity
    00:00 +18°C° 0 mm 3 mps 760 mmHg 71%
    01:00 +18°C° 0 mm 3 mps 760 mmHg 70%
    02:00 +18°C° 0 mm 3 mps 760 mmHg 69%
    03:00 +18°C° 0 mm 3 mps 760 mmHg 71%
    04:00 +18°C° 0 mm 3 mps 760 mmHg 72%
    05:00 +18°C° 0 mm 4 mps 760 mmHg 74%
    06:00 +19°C° 0 mm 4 mps 760 mmHg 71%
    07:00 +20°C° 0 mm 4 mps 760 mmHg 69%
    08:00 +21°C° 0 mm 4 mps 760 mmHg 66%
    09:00 +22°C° 0 mm 5 mps 760 mmHg 61%
    10:00 +25°C° 0 mm 5 mps 760 mmHg 57%
    11:00 +26°C° 0 mm 6 mps 760 mmHg 52%
    12:00 +26°C° 0 mm 6 mps 760 mmHg 51%
    13:00 +27°C° 0 mm 6 mps 760 mmHg 49%
    14:00 +27°C° 0 mm 6 mps 760 mmHg 48%
    15:00 +27°C° 0 mm 6 mps 760 mmHg 49%
    16:00 +26°C° 0 mm 6 mps 760 mmHg 50%
    17:00 +26°C° 0 mm 6 mps 760 mmHg 52%
    18:00 +23°C° 0 mm 5 mps 760 mmHg 58%
    19:00 +21°C° 0 mm 5 mps 760 mmHg 65%
    20:00 +19°C° 0 mm 5 mps 760 mmHg 72%
    21:00 +19°C° 0 mm 5 mps 760 mmHg 77%
    22:00 +18°C° 0 mm 4 mps 761 mmHg 81%
    23:00 +18°C° 0 mm 4 mps 761 mmHg 85%

    25 June, Monday

    Time Temperature Precipitation Wind Pressure Humidity
    00:00 +18°C° 0 mm 4 mps 761 mmHg 86%
    01:00 +18°C° 0 mm 4 mps 760 mmHg 87%
    02:00 +17°C° 0 mm 5 mps 760 mmHg 88%
    03:00 +17°C° 0 mm 5 mps 760 mmHg 87%
    04:00 +17°C° 0 mm 5 mps 760 mmHg 87%
    05:00 +17°C° 0 mm 5 mps 760 mmHg 87%
    06:00 +19°C° 0 mm 5 mps 760 mmHg 78%
    07:00 +21°C° 0 mm 6 mps 760 mmHg 70%
    08:00 +23°C° 0 mm 6 mps 760 mmHg 62%
    09:00 +24°C° 0 mm 7 mps 760 mmHg 58%
    10:00 +26°C° 0 mm 7 mps 760 mmHg 55%
    11:00 +27°C° 0 mm 7 mps 760 mmHg 51%
    12:00 +28°C° 0 mm 7 mps 759 mmHg 51%
    13:00 +28°C° 0 mm 7 mps 759 mmHg 50%
    14:00 +28°C° 0 mm 7 mps 759 mmHg 50%
    15:00 +28°C° 0 mm 8 mps 759 mmHg 52%
    16:00 +27°C° 0 mm 8 mps 758 mmHg 54%
    17:00 +26°C° 0 mm 8 mps 758 mmHg 56%
    18:00 +24°C° 0 mm 8 mps 758 mmHg 63%
    19:00 +23°C° 0 mm 7 mps 758 mmHg 70%
    20:00 +22°C° 0 mm 7 mps 759 mmHg 76%
    21:00 +21°C° 0 mm 7 mps 758 mmHg 78%
    22:00 +21°C° 0 mm 7 mps 758 mmHg 80%
    23:00 +21°C° 0 mm 7 mps 758 mmHg 82%

    26 June, Tuesday

    Time Temperature Precipitation Wind Pressure Humidity
    00:00 +21°C° 0 mm 7 mps 758 mmHg 82%
    01:00 +21°C° 0 mm 7 mps 758 mmHg 81%
    02:00 +21°C° 0 mm 7 mps 758 mmHg 81%
    03:00 +21°C° 0 mm 7 mps 758 mmHg 81%
    04:00 +21°C° 0 mm 7 mps 757 mmHg 81%
    05:00 +21°C° 0 mm 7 mps 757 mmHg 80%
    06:00 +22°C° 0 mm 7 mps 757 mmHg 74%
    07:00 +24°C° 0 mm 8 mps 757 mmHg 68%
    08:00 +26°C° 0 mm 8 mps 757 mmHg 63%
    09:00 +27°C° 0 mm 8 mps 757 mmHg 60%
    10:00 +27°C° 0 mm 8 mps 757 mmHg 58%
    11:00 +28°C° 0 mm 8 mps 757 mmHg 55%
    12:00 +28°C° 0.1 mm 8 mps 756 mmHg 60%
    13:00 +27°C° 0.1 mm 8 mps 756 mmHg 65%
    14:00 +26°C° 0.1 mm 8 mps 756 mmHg 70%
    15:00 +26°C° 0.3 mm 8 mps 756 mmHg 71%
    16:00 +26°C° 0.3 mm 8 mps 756 mmHg 71%
    17:00 +26°C° 0.3 mm 8 mps 756 mmHg 72%
    18:00 +24°C° 0.2 mm 7 mps 756 mmHg 76%
    19:00 +23°C° 0.2 mm 7 mps 756 mmHg 80%
    20:00 +22°C° 0.2 mm 6 mps 756 mmHg 84%
    21:00 +22°C° 0.1 mm 6 mps 756 mmHg 85%
    22:00 +22°C° 0.1 mm 6 mps 756 mmHg 86%
    23:00 +22°C° 0.1 mm 6 mps 756 mmHg 87%
    Show more